contact:dominique.lefevre@mio.osupytheas.fr, maurice.libes@osupytheas.fr, didier.mallarino@osupytheas.fr
Project:EMSO http://www.emso-fr.org/EMSO-France
Depth: 2436.0 m
Title:EMSO Ligure Ouest : Data MII capteur AQUADOPP
Date,Latitude,Longitude,X_East,Y_North,Z_Up,Amplitude_X,Amplitude_Y,Amplitude_Z,Batterie,SoundSpeed,Heading,Pitch,Roll,Pressure,TIS,Speed,Direction
, degrees North, degrees East, m.s-1, m.s-1,m.s-1, 1, 1, 1, Volt, m.s-1, degree, degree, degree, dbar, degree_C, m.s-1, degree
2020-11-20T00:04:03,42.805,6.029,0.0,0.006,0.036,100.0,105.0,99.0,13.4,1505.3,325.2,-0.7,1.8,2470.451,13.31,0.006,0.0
2020-11-20T00:07:03,42.805,6.029,0.011,0.009,0.032,102.0,105.0,99.0,13.4,1505.3,324.6,-0.7,1.8,2470.431,13.32,0.014,50.7
2020-11-20T00:10:03,42.805,6.029,0.015,-0.025,0.004,101.0,108.0,98.0,13.4,1505.3,327.5,-0.7,1.8,2470.416,13.32,0.029,149.0
2020-11-20T00:13:03,42.805,6.029,-0.031,-0.019,-0.031,103.0,106.0,100.0,13.3,1505.3,324.2,-0.7,1.8,2470.428,13.32,0.036,238.5
2020-11-20T00:16:03,42.805,6.029,-0.003,-0.015,-0.001,103.0,105.0,99.0,13.3,1505.3,324.2,-0.7,1.8,2470.384,13.33,0.015,191.3
2020-11-20T00:19:03,42.805,6.029,-0.041,-0.009,-0.005,101.0,106.0,100.0,13.3,1505.3,327.9,-0.6,1.8,2470.399,13.33,0.041,257.6
2020-11-20T00:22:03,42.805,6.029,-0.003,-0.01,-0.003,102.0,106.0,98.0,13.3,1505.3,327.1,-0.7,1.8,2470.404,13.33,0.01,196.7
2020-11-20T00:25:03,42.805,6.029,-0.043,-0.017,-0.036,102.0,106.0,99.0,13.4,1505.3,324.1,-0.7,1.8,2470.384,13.33,0.046,248.4
2020-11-20T00:28:03,42.805,6.029,0.02,-0.008,-0.017,102.0,105.0,99.0,13.4,1505.3,325.9,-0.7,1.8,2470.417,13.33,0.021,111.8
2020-11-20T00:31:03,42.805,6.029,0.009,0.0,0.003,102.0,104.0,100.0,13.4,1505.3,326.4,-0.7,1.9,2470.411,13.33,0.009,90.0
2020-11-20T00:34:03,42.805,6.029,0.058,0.005,0.074,101.0,106.0,100.0,13.4,1505.3,323.9,-0.7,1.8,2470.384,13.33,0.058,85.1
2020-11-20T00:37:03,42.805,6.029,0.033,-0.001,0.012,103.0,105.0,99.0,13.4,1505.3,324.9,-0.7,1.8,2470.369,13.33,0.033,91.7
2020-11-20T00:40:03,42.805,6.029,0.033,0.0,0.061,103.0,104.0,98.0,13.3,1505.3,325.7,-0.7,1.8,2470.365,13.33,0.033,90.0
2020-11-20T00:43:03,42.805,6.029,0.067,-0.019,0.024,101.0,104.0,98.0,13.4,1505.3,326.3,-0.7,1.9,2470.417,13.33,0.069,105.8
2020-11-20T00:46:03,42.805,6.029,0.036,-0.025,0.062,100.0,104.0,100.0,13.4,1505.3,326.4,-0.7,1.9,2470.33,13.33,0.043,124.8
2020-11-20T00:49:03,42.805,6.029,0.038,-0.018,0.019,100.0,105.0,100.0,13.3,1505.3,324.3,-0.7,1.8,2470.389,13.33,0.042,115.3
2020-11-20T00:52:03,42.805,6.029,0.051,0.0,0.057,101.0,104.0,100.0,13.4,1505.3,324.2,-0.7,1.8,2470.405,13.33,0.051,90.0
2020-11-20T00:55:03,42.805,6.029,0.026,-0.012,-0.028,100.0,106.0,98.0,13.4,1505.3,326.8,-0.7,1.9,2470.396,13.33,0.028,114.8
2020-11-20T00:58:03,42.805,6.029,0.03,0.002,-0.007,103.0,102.0,100.0,13.4,1505.3,323.0,-0.7,1.8,2470.376,13.33,0.03,86.2
2020-11-20T01:04:03,42.805,6.029,0.059,-0.007,0.069,102.0,104.0,101.0,13.3,1505.3,325.4,-0.8,1.8,2470.41,13.31,0.059,96.8
2020-11-20T01:07:03,42.805,6.029,0.045,-0.009,0.018,101.0,106.0,98.0,13.4,1505.3,328.1,-0.7,1.8,2470.4,13.31,0.045,101.3
2020-11-20T01:10:03,42.805,6.029,0.097,-0.013,0.068,99.0,104.0,100.0,13.3,1505.3,323.6,-0.7,1.8,2470.398,13.32,0.097,97.6
2020-11-20T01:13:03,42.805,6.029,0.051,0.009,0.038,102.0,103.0,98.0,13.3,1505.3,323.7,-0.7,1.8,2470.388,13.32,0.051,80.0
2020-11-20T01:16:03,42.805,6.029,0.056,0.017,0.052,102.0,104.0,99.0,13.4,1505.3,325.0,-0.7,1.8,2470.376,13.32,0.058,73.1
2020-11-20T01:19:03,42.805,6.029,0.029,-0.003,0.015,101.0,105.0,99.0,13.4,1505.3,325.8,-0.7,1.8,2470.362,13.33,0.029,95.9
2020-11-20T01:22:03,42.805,6.029,-0.007,-0.006,-0.04,101.0,104.0,100.0,13.4,1505.3,326.1,-0.7,1.8,2470.402,13.33,0.009,229.4
2020-11-20T01:25:03,42.805,6.029,-0.007,-0.001,-0.023,102.0,105.0,100.0,13.4,1505.3,326.0,-0.7,1.8,2470.39,13.33,0.007,261.9
2020-11-20T01:28:03,42.805,6.029,-0.02,-0.01,-0.08,102.0,104.0,98.0,13.3,1505.3,326.1,-0.7,1.8,2470.362,13.33,0.022,243.4
2020-11-20T01:31:03,42.805,6.029,0.012,0.001,-0.002,102.0,105.0,99.0,13.3,1505.3,326.4,-0.7,1.8,2470.373,13.33,0.012,85.2
2020-11-20T01:34:03,42.805,6.029,0.014,-0.013,0.005,101.0,104.0,100.0,13.4,1505.3,323.6,-0.7,1.8,2470.399,13.33,0.019,132.9
2020-11-20T01:37:03,42.805,6.029,0.023,-0.009,0.035,102.0,103.0,100.0,13.4,1505.3,322.7,-0.7,1.8,2470.337,13.33,0.024,111.4
2020-11-20T01:40:03,42.805,6.029,0.042,-0.011,0.015,102.0,102.0,99.0,13.4,1505.3,327.8,-0.7,1.8,2470.362,13.33,0.043,104.7
2020-11-20T01:43:03,42.805,6.029,0.017,-0.007,-0.022,101.0,104.0,99.0,13.4,1505.3,324.3,-0.7,1.8,2470.346,13.33,0.018,112.4
2020-11-20T01:46:03,42.805,6.029,0.041,-0.01,-0.013,101.0,105.0,99.0,13.3,1505.3,326.4,-0.7,1.8,2470.376,13.33,0.042,103.7
2020-11-20T01:49:03,42.805,6.029,0.029,0.003,0.013,99.0,104.0,102.0,13.4,1505.3,323.3,-0.7,1.9,2470.361,13.33,0.029,84.1
2020-11-20T01:52:03,42.805,6.029,0.015,-0.003,0.012,100.0,105.0,99.0,13.4,1505.3,325.4,-0.7,1.8,2470.37,13.33,0.015,101.3
2020-11-20T01:55:03,42.805,6.029,-0.011,-0.021,-0.024,101.0,104.0,99.0,13.3,1505.3,326.5,-0.7,1.8,2470.329,13.33,0.023,207.6
2020-11-20T01:58:03,42.805,6.029,0.015,-0.013,-0.019,101.0,104.0,99.0,13.3,1505.3,326.3,-0.7,1.9,2470.37,13.33,0.019,130.9
2020-11-20T02:04:03,42.805,6.029,-0.02,-0.025,-0.034,101.0,103.0,99.0,13.4,1505.3,324.7,-0.7,1.8,2470.384,13.31,0.032,218.7
2020-11-20T02:07:03,42.805,6.029,-0.007,-0.037,-0.023,102.0,105.0,97.0,13.4,1505.3,327.7,-0.7,1.9,2470.367,13.31,0.037,190.7
2020-11-20T02:10:03,42.805,6.029,0.016,-0.004,0.01,102.0,103.0,100.0,13.3,1505.3,325.2,-0.7,1.8,2470.373,13.32,0.016,104.0
2020-11-20T02:13:03,42.805,6.029,-0.039,-0.007,-0.036,101.0,104.0,99.0,13.3,1505.3,327.7,-0.7,1.8,2470.384,13.32,0.039,259.8
2020-11-20T02:16:03,42.805,6.029,0.004,-0.015,-0.065,101.0,103.0,98.0,13.3,1505.3,324.5,-0.7,1.8,2470.392,13.32,0.015,165.1
2020-11-20T02:19:03,42.805,6.029,-0.006,0.005,-0.013,102.0,103.0,99.0,13.3,1505.3,325.8,-0.7,1.8,2470.345,13.32,0.007,309.8
2020-11-20T02:22:03,42.805,6.029,0.027,-0.021,-0.011,102.0,103.0,98.0,13.3,1505.3,325.9,-0.7,1.8,2470.333,13.32,0.034,127.9
2020-11-20T02:25:03,42.805,6.029,-0.021,-0.015,-0.068,101.0,102.0,99.0,13.4,1505.3,327.0,-0.7,1.8,2470.361,13.32,0.025,234.5
2020-11-20T02:28:03,42.805,6.029,-0.032,-0.008,-0.018,100.0,103.0,98.0,13.4,1505.3,322.8,-0.7,1.8,2470.363,13.32,0.032,256.0
2020-11-20T02:31:03,42.805,6.029,-0.047,-0.021,-0.075,101.0,104.0,98.0,13.4,1505.3,327.0,-0.7,1.8,2470.379,13.32,0.051,245.9
2020-11-20T02:34:03,42.805,6.029,0.0,-0.016,-0.032,101.0,105.0,99.0,13.4,1505.3,325.1,-0.7,1.8,2470.382,13.32,0.016,180.0
2020-11-20T02:37:03,42.805,6.029,0.049,-0.023,-0.002,101.0,102.0,100.0,13.3,1505.3,327.8,-0.7,1.8,2470.342,13.32,0.054,115.1
2020-11-20T02:40:03,42.805,6.029,0.014,-0.02,-0.014,100.0,104.0,101.0,13.4,1505.3,323.5,-0.7,1.8,2470.344,13.32,0.024,145.0
2020-11-20T02:43:03,42.805,6.029,0.017,-0.002,-0.006,100.0,105.0,99.0,13.4,1505.3,324.0,-0.7,1.8,2470.331,13.32,0.017,96.7
2020-11-20T02:46:03,42.805,6.029,0.028,-0.009,-0.009,99.0,104.0,101.0,13.3,1505.3,325.7,-0.7,1.8,2470.357,13.32,0.029,107.8
2020-11-20T02:49:03,42.805,6.029,0.024,-0.015,-0.015,101.0,103.0,100.0,13.3,1505.3,325.7,-0.7,1.8,2470.314,13.33,0.028,122.0
2020-11-20T02:52:03,42.805,6.029,0.016,-0.011,-0.02,101.0,104.0,99.0,13.3,1505.3,326.6,-0.6,1.8,2470.297,13.33,0.019,124.5
2020-11-20T02:58:03,42.805,6.029,0.065,-0.021,0.02,101.0,104.0,100.0,13.4,1505.3,324.0,-0.7,1.8,2470.403,13.31,0.068,107.9
2020-11-20T03:01:03,42.805,6.029,-0.007,-0.017,-0.035,101.0,104.0,98.0,13.4,1505.3,325.5,-0.7,1.8,2470.377,13.31,0.018,202.4
2020-11-20T03:04:03,42.805,6.029,0.005,0.008,0.016,102.0,104.0,100.0,13.4,1505.3,326.3,-0.7,1.8,2470.335,13.32,0.009,32.0
2020-11-20T03:07:03,42.805,6.029,0.01,-0.016,-0.013,102.0,104.0,101.0,13.3,1505.3,327.1,-0.7,1.8,2470.34,13.32,0.018,148.0
2020-11-20T03:10:03,42.805,6.029,0.006,-0.017,-0.032,102.0,104.0,99.0,13.4,1505.3,325.3,-0.7,1.8,2470.341,13.32,0.018,160.6
2020-11-20T03:13:03,42.805,6.029,0.037,-0.01,0.016,101.0,105.0,99.0,13.3,1505.3,325.0,-0.7,1.8,2470.317,13.32,0.038,105.1
2020-11-20T03:16:03,42.805,6.029,0.018,-0.025,-0.002,101.0,104.0,99.0,13.4,1505.3,326.6,-0.7,1.8,2470.306,13.32,0.03,144.2
2020-11-20T03:19:03,42.805,6.029,0.049,-0.01,0.019,101.0,106.0,99.0,13.4,1505.3,324.1,-0.7,1.8,2470.365,13.32,0.05,101.5
2020-11-20T03:22:03,42.805,6.029,0.006,-0.007,0.002,101.0,105.0,99.0,13.3,1505.3,326.7,-0.7,1.8,2470.303,13.32,0.009,139.4
2020-11-20T03:25:03,42.805,6.029,0.047,-0.028,0.017,102.0,105.0,100.0,13.4,1505.3,324.4,-0.7,1.8,2470.314,13.32,0.054,120.8
2020-11-20T03:28:03,42.805,6.029,0.002,-0.02,-0.037,102.0,104.0,99.0,13.4,1505.3,325.1,-0.7,1.9,2470.302,13.32,0.02,174.3
2020-11-20T03:31:03,42.805,6.029,0.05,-0.021,0.0,100.0,107.0,99.0,13.4,1505.3,327.1,-0.7,1.8,2470.323,13.32,0.054,112.8
2020-11-20T03:34:03,42.805,6.029,0.047,-0.015,0.037,101.0,104.0,99.0,13.3,1505.3,323.7,-0.7,1.9,2470.343,13.32,0.049,107.7
2020-11-20T03:37:03,42.805,6.029,0.016,-0.01,-0.009,101.0,105.0,100.0,13.4,1505.3,322.8,-0.7,1.8,2470.344,13.33,0.018,122.0
2020-11-20T03:40:03,42.805,6.029,0.023,-0.022,0.007,101.0,106.0,99.0,13.3,1505.3,328.5,-0.7,1.8,2470.331,13.33,0.031,133.7
2020-11-20T03:43:03,42.805,6.029,0.052,-0.014,0.008,101.0,106.0,99.0,13.4,1505.3,327.2,-0.7,1.8,2470.333,13.32,0.053,105.1
2020-11-20T03:46:03,42.805,6.029,0.044,0.0,0.048,101.0,106.0,100.0,13.4,1505.3,327.3,-0.7,1.8,2470.334,13.33,0.044,90.0
2020-11-20T03:49:03,42.805,6.029,0.062,-0.014,0.018,102.0,104.0,100.0,13.4,1505.3,327.4,-0.7,1.8,2470.302,13.33,0.063,102.7
2020-11-20T03:52:03,42.805,6.029,0.05,-0.03,0.009,101.0,105.0,100.0,13.3,1505.3,326.3,-0.7,1.9,2470.295,13.33,0.058,121.0
2020-11-20T03:55:03,42.805,6.029,0.051,-0.017,0.014,102.0,104.0,99.0,13.3,1505.3,325.4,-0.7,1.9,2470.364,13.33,0.053,108.4
2020-11-20T03:58:03,42.805,6.029,0.022,-0.021,-0.027,101.0,104.0,100.0,13.3,1505.3,325.7,-0.7,1.8,2470.251,13.33,0.03,133.7
2020-11-20T04:04:03,42.805,6.029,0.016,-0.009,-0.029,101.0,105.0,100.0,13.3,1505.3,325.0,-0.7,1.8,2470.329,13.31,0.018,119.4
2020-11-20T04:07:03,42.805,6.029,0.036,-0.013,0.027,101.0,105.0,99.0,13.3,1505.3,326.9,-0.7,1.8,2470.336,13.31,0.038,109.9
2020-11-20T04:10:03,42.805,6.029,0.052,-0.019,0.028,101.0,106.0,98.0,13.3,1505.3,324.8,-0.7,1.9,2470.379,13.32,0.055,110.1
2020-11-20T04:13:03,42.805,6.029,0.037,-0.035,-0.005,101.0,105.0,100.0,13.4,1505.3,326.3,-0.7,1.8,2470.349,13.32,0.05,133.4
2020-11-20T04:16:03,42.805,6.029,0.043,-0.007,0.032,104.0,105.0,98.0,13.4,1505.3,323.4,-0.7,1.8,2470.285,13.32,0.043,99.2
2020-11-20T04:19:03,42.805,6.029,0.039,-0.033,-0.002,101.0,105.0,99.0,13.3,1505.3,323.8,-0.7,1.8,2470.346,13.32,0.051,130.2
2020-11-20T04:22:03,42.805,6.029,0.018,-0.029,-0.055,100.0,104.0,99.0,13.3,1505.3,324.2,-0.7,1.8,2470.324,13.32,0.034,148.2
2020-11-20T04:25:03,42.805,6.029,0.042,-0.024,0.03,100.0,107.0,99.0,13.3,1505.3,327.4,-0.7,1.8,2470.348,13.32,0.048,119.7
2020-11-20T04:28:03,42.805,6.029,0.012,-0.023,-0.019,100.0,104.0,100.0,13.4,1505.3,322.6,-0.7,1.8,2470.31,13.32,0.025,152.4
2020-11-20T04:31:03,42.805,6.029,0.008,-0.018,-0.001,102.0,105.0,99.0,13.3,1505.3,326.9,-0.7,1.8,2470.317,13.33,0.019,156.0
2020-11-20T04:34:03,42.805,6.029,0.027,-0.018,-0.016,102.0,105.0,99.0,13.4,1505.3,324.8,-0.7,1.8,2470.281,13.33,0.032,123.7
2020-11-20T04:37:03,42.805,6.029,0.007,-0.019,-0.032,102.0,105.0,98.0,13.4,1505.3,323.4,-0.7,1.8,2470.319,13.33,0.02,159.8
2020-11-20T04:40:03,42.805,6.029,-0.031,0.005,-0.015,101.0,104.0,99.0,13.4,1505.3,323.8,-0.7,1.8,2470.342,13.33,0.031,279.2
2020-11-20T04:43:03,42.805,6.029,-0.011,-0.01,-0.03,101.0,105.0,100.0,13.4,1505.3,324.8,-0.7,1.8,2470.337,13.33,0.014,227.7
2020-11-20T04:46:03,42.805,6.029,0.024,0.007,0.007,101.0,105.0,100.0,13.4,1505.3,324.4,-0.7,1.8,2470.345,13.33,0.025,73.7
2020-11-20T04:49:03,42.805,6.029,0.015,-0.009,-0.037,103.0,103.0,99.0,13.4,1505.3,327.2,-0.7,1.8,2470.294,13.33,0.017,121.0
2020-11-20T04:52:03,42.805,6.029,0.017,-0.029,-0.008,100.0,105.0,99.0,13.4,1505.3,323.6,-0.7,1.8,2470.311,13.33,0.033,149.6
2020-11-20T04:55:03,42.805,6.029,0.035,-0.035,0.007,101.0,106.0,99.0,13.4,1505.3,325.6,-0.7,1.9,2470.289,13.33,0.049,135.0
2020-11-20T04:58:03,42.805,6.029,0.006,-0.023,-0.015,103.0,104.0,99.0,13.3,1505.3,324.3,-0.7,1.8,2470.325,13.33,0.023,165.4
2020-11-20T05:04:03,42.805,6.029,0.015,-0.027,0.0,101.0,104.0,100.0,13.4,1505.3,326.0,-0.7,1.8,2470.33,13.31,0.03,150.9
2020-11-20T05:07:03,42.805,6.029,-0.019,-0.014,-0.036,102.0,103.0,99.0,13.3,1505.3,326.9,-0.7,1.8,2470.343,13.31,0.023,233.6
2020-11-20T05:10:03,42.805,6.029,0.016,-0.02,-0.041,101.0,104.0,99.0,13.4,1505.3,324.5,-0.7,1.8,2470.375,13.32,0.025,141.3
2020-11-20T05:13:03,42.805,6.029,0.017,-0.026,-0.009,100.0,103.0,99.0,13.4,1505.3,323.6,-0.7,1.8,2470.341,13.32,0.031,146.8
2020-11-20T05:16:03,42.805,6.029,0.003,-0.036,-0.029,100.0,105.0,99.0,13.3,1505.3,323.3,-0.7,1.9,2470.372,13.32,0.036,175.2
2020-11-20T05:19:03,42.805,6.029,0.009,-0.037,-0.021,100.0,105.0,99.0,13.4,1505.3,323.0,-0.7,1.8,2470.366,13.32,0.038,166.3
2020-11-20T05:22:03,42.805,6.029,0.001,-0.018,-0.009,100.0,104.0,99.0,13.3,1505.3,322.6,-0.7,1.8,2470.302,13.32,0.018,176.8
2020-11-20T05:25:03,42.805,6.029,0.028,-0.013,0.031,101.0,105.0,99.0,13.4,1505.3,327.7,-0.7,1.8,2470.324,13.32,0.03,114.9
2020-11-20T05:28:03,42.805,6.029,0.017,-0.004,0.001,101.0,104.0,99.0,13.4,1505.3,328.1,-0.7,1.8,2470.305,13.32,0.017,103.2
2020-11-20T05:31:03,42.805,6.029,0.01,-0.018,-0.024,101.0,104.0,100.0,13.3,1505.3,324.5,-0.7,1.8,2470.306,13.33,0.02,150.9
2020-11-20T05:34:03,42.805,6.029,-0.009,-0.018,-0.044,101.0,104.0,100.0,13.4,1505.3,324.7,-0.7,1.8,2470.319,13.33,0.02,206.6
2020-11-20T05:37:03,42.805,6.029,0.004,-0.025,-0.01,101.0,103.0,99.0,13.4,1505.3,327.0,-0.7,1.8,2470.338,13.33,0.025,170.9
2020-11-20T05:40:03,42.805,6.029,-0.027,-0.041,-0.039,101.0,105.0,99.0,13.4,1505.3,324.5,-0.7,1.8,2470.322,13.33,0.049,213.4
2020-11-20T05:43:03,42.805,6.029,-0.007,-0.02,-0.032,101.0,105.0,99.0,13.4,1505.3,324.0,-0.7,1.9,2470.319,13.33,0.021,199.3
2020-11-20T05:46:03,42.805,6.029,0.0,-0.031,-0.034,102.0,104.0,99.0,13.4,1505.3,323.2,-0.7,1.8,2470.335,13.33,0.03,180.0
2020-11-20T05:49:03,42.805,6.029,0.011,-0.023,-0.032,102.0,105.0,99.0,13.3,1505.3,325.7,-0.7,1.8,2470.355,13.33,0.025,154.4
2020-11-20T05:52:03,42.805,6.029,-0.029,-0.023,-0.036,101.0,104.0,100.0,13.4,1505.3,327.9,-0.7,1.8,2470.327,13.33,0.037,231.6
2020-11-20T05:55:03,42.805,6.029,-0.007,0.0,0.014,100.0,105.0,99.0,13.4,1505.3,326.5,-0.7,1.8,2470.306,13.33,0.007,270.0
2020-11-20T05:58:03,42.805,6.029,-0.001,-0.01,-0.032,101.0,105.0,98.0,13.3,1505.3,325.7,-0.7,1.8,2470.346,13.33,0.01,185.7
2020-11-20T06:04:03,42.805,6.029,-0.007,-0.032,-0.051,101.0,104.0,99.0,13.4,1505.3,326.2,-0.7,1.8,2470.356,13.31,0.032,192.3
2020-11-20T06:07:03,42.805,6.029,-0.004,-0.033,-0.037,101.0,103.0,100.0,13.4,1505.3,325.8,-0.7,1.8,2470.376,13.31,0.033,186.9
2020-11-20T06:10:03,42.805,6.029,-0.032,-0.016,0.0,101.0,104.0,99.0,13.4,1505.3,326.3,-0.7,1.8,2470.378,13.32,0.035,243.4
2020-11-20T06:13:03,42.805,6.029,-0.029,-0.013,-0.028,101.0,104.0,99.0,13.3,1505.3,324.2,-0.7,1.8,2470.354,13.32,0.031,245.9
2020-11-20T06:16:03,42.805,6.029,-0.015,-0.031,-0.078,101.0,103.0,100.0,13.4,1505.3,326.2,-0.7,1.8,2470.325,13.32,0.034,205.8
2020-11-20T06:19:03,42.805,6.029,0.013,-0.015,0.016,102.0,104.0,99.0,13.3,1505.3,325.3,-0.7,1.8,2470.335,13.32,0.019,139.1
2020-11-20T06:22:03,42.805,6.029,0.002,-0.02,-0.03,102.0,105.0,99.0,13.4,1505.3,328.3,-0.7,1.8,2470.33,13.32,0.02,174.3
2020-11-20T06:25:03,42.805,6.029,-0.009,-0.015,-0.022,101.0,104.0,100.0,13.3,1505.3,324.0,-0.7,1.8,2470.334,13.33,0.017,211.0
2020-11-20T06:28:03,42.805,6.029,-0.036,-0.019,-0.012,101.0,104.0,99.0,13.4,1505.3,326.0,-0.7,1.8,2470.336,13.32,0.04,242.2
2020-11-20T06:31:03,42.805,6.029,0.012,-0.03,-0.04,103.0,103.0,99.0,13.4,1505.3,326.6,-0.7,1.8,2470.362,13.33,0.032,158.2
2020-11-20T06:34:03,42.805,6.029,-0.019,-0.033,-0.069,101.0,105.0,99.0,13.4,1505.3,322.8,-0.7,1.8,2470.316,13.33,0.038,209.9
2020-11-20T06:37:03,42.805,6.029,0.011,-0.023,0.029,101.0,106.0,99.0,13.4,1505.3,326.5,-0.7,1.8,2470.337,13.33,0.025,154.4
2020-11-20T06:40:03,42.805,6.029,0.004,-0.03,-0.027,101.0,104.0,99.0,13.4,1505.3,326.9,-0.7,1.8,2470.359,13.33,0.03,172.4
2020-11-20T06:43:03,42.805,6.029,0.004,-0.027,-0.01,101.0,104.0,100.0,13.4,1505.3,326.4,-0.7,1.8,2470.385,13.33,0.027,171.6
2020-11-20T06:46:03,42.805,6.029,0.0,-0.014,-0.034,102.0,103.0,99.0,13.3,1505.3,323.9,-0.7,1.8,2470.367,13.33,0.014,180.0
2020-11-20T06:49:03,42.805,6.029,-0.04,-0.039,-0.014,101.0,105.0,100.0,13.4,1505.3,328.1,-0.7,1.8,2470.371,13.33,0.055,225.7
2020-11-20T06:52:03,42.805,6.029,-0.007,-0.014,0.004,102.0,104.0,100.0,13.4,1505.3,327.7,-0.7,1.8,2470.35,13.32,0.015,206.6
2020-11-20T06:55:03,42.805,6.029,0.024,-0.027,-0.006,101.0,105.0,101.0,13.4,1505.3,326.0,-0.7,1.8,2470.363,13.33,0.036,138.4
2020-11-20T06:58:03,42.805,6.029,-0.019,-0.031,-0.033,102.0,105.0,99.0,13.3,1505.3,323.3,-0.7,1.8,2470.352,13.33,0.036,211.5
2020-11-20T07:04:03,42.805,6.029,0.014,0.001,0.016,102.0,105.0,100.0,13.4,1505.3,323.3,-0.7,1.8,2470.406,13.31,0.014,85.9
2020-11-20T07:07:03,42.805,6.029,-0.007,-0.019,-0.018,101.0,104.0,101.0,13.4,1505.3,323.3,-0.7,1.8,2470.356,13.31,0.02,200.2
2020-11-20T07:10:03,42.805,6.029,0.035,-0.028,-0.014,102.0,106.0,99.0,13.4,1505.3,325.7,-0.7,1.8,2470.39,13.32,0.044,128.7
2020-11-20T07:13:03,42.805,6.029,0.01,-0.025,-0.002,102.0,104.0,99.0,13.4,1505.3,325.6,-0.7,1.8,2470.408,13.32,0.026,158.2
2020-11-20T07:16:03,42.805,6.029,-0.012,-0.023,-0.005,101.0,106.0,100.0,13.3,1505.3,327.2,-0.7,1.8,2470.391,13.32,0.025,207.6
2020-11-20T07:19:03,42.805,6.029,0.032,-0.025,0.032,102.0,105.0,100.0,13.4,1505.3,325.9,-0.7,1.8,2470.384,13.32,0.04,128.0
2020-11-20T07:22:03,42.805,6.029,-0.008,-0.026,-0.036,101.0,102.0,99.0,13.3,1505.3,326.5,-0.7,1.9,2470.36,13.32,0.027,197.1
2020-11-20T07:25:03,42.805,6.029,0.03,-0.029,0.005,101.0,104.0,99.0,13.3,1505.3,325.1,-0.7,1.8,2470.377,13.33,0.041,134.0
2020-11-20T07:28:03,42.805,6.029,0.007,-0.02,-0.006,101.0,103.0,99.0,13.3,1505.3,325.4,-0.7,1.8,2470.383,13.33,0.021,160.7
2020-11-20T07:31:03,42.805,6.029,0.04,-0.001,0.057,101.0,104.0,99.0,13.4,1505.3,323.4,-0.6,1.8,2470.374,13.32,0.04,91.4
2020-11-20T07:34:03,42.805,6.029,0.045,-0.042,0.041,100.0,104.0,100.0,13.4,1505.3,324.9,-0.7,1.8,2470.394,13.33,0.061,133.0
2020-11-20T07:37:03,42.805,6.029,0.018,-0.025,-0.011,102.0,104.0,100.0,13.3,1505.3,324.1,-0.7,1.8,2470.441,13.33,0.03,144.2
2020-11-20T07:40:03,42.805,6.029,0.008,-0.008,-0.008,101.0,104.0,100.0,13.4,1505.3,325.2,-0.7,1.8,2470.412,13.33,0.011,135.0
2020-11-20T07:43:03,42.805,6.029,0.032,-0.042,0.001,101.0,103.0,100.0,13.3,1505.3,326.7,-0.7,1.8,2470.418,13.33,0.052,142.7
2020-11-20T07:46:03,42.805,6.029,0.011,-0.023,0.001,102.0,103.0,100.0,13.4,1505.3,328.2,-0.7,1.8,2470.412,13.33,0.025,154.4
2020-11-20T07:49:03,42.805,6.029,0.022,-0.029,0.021,102.0,104.0,99.0,13.4,1505.3,324.4,-0.7,1.8,2470.373,13.33,0.036,142.8
2020-11-20T07:52:03,42.805,6.029,0.006,-0.039,0.003,101.0,104.0,100.0,13.4,1505.3,325.4,-0.7,1.8,2470.401,13.32,0.039,171.3
2020-11-20T07:55:03,42.805,6.029,0.038,-0.04,0.015,102.0,103.0,99.0,13.4,1505.3,328.4,-0.7,1.8,2470.407,13.32,0.055,136.5
2020-11-20T07:58:03,42.805,6.029,-0.002,-0.024,-0.018,100.0,103.0,100.0,13.4,1505.3,325.1,-0.7,1.8,2470.413,13.32,0.024,184.8
2020-11-20T08:04:03,42.805,6.029,0.026,-0.016,0.054,102.0,105.0,100.0,13.3,1505.3,326.3,-0.7,1.8,2470.435,13.31,0.03,121.6
2020-11-20T08:07:03,42.805,6.029,-0.013,-0.014,0.013,102.0,105.0,99.0,13.3,1505.3,327.6,-0.8,1.8,2470.433,13.31,0.019,222.9
2020-11-20T08:10:03,42.805,6.029,0.004,-0.025,0.019,102.0,107.0,99.0,13.4,1505.3,328.1,-0.7,1.8,2470.436,13.32,0.025,170.9
2020-11-20T08:13:03,42.805,6.029,-0.035,-0.027,-0.055,103.0,105.0,99.0,13.3,1505.3,325.4,-0.7,1.8,2470.476,13.32,0.044,232.3
2020-11-20T08:16:03,42.805,6.029,-0.016,-0.038,-0.051,102.0,107.0,99.0,13.4,1505.3,323.7,-0.7,1.9,2470.425,13.32,0.041,202.8
2020-11-20T08:19:03,42.805,6.029,0.0,-0.022,0.001,101.0,107.0,99.0,13.4,1505.3,326.5,-0.7,1.8,2470.421,13.32,0.022,180.0
2020-11-20T08:22:03,42.805,6.029,0.001,-0.026,-0.022,101.0,106.0,99.0,13.4,1505.3,324.2,-0.7,1.8,2470.436,13.32,0.026,177.8
2020-11-20T08:25:03,42.805,6.029,0.044,-0.025,0.021,100.0,106.0,101.0,13.4,1505.3,324.5,-0.7,1.8,2470.436,13.33,0.05,119.6
2020-11-20T08:28:03,42.805,6.029,-0.025,-0.03,-0.018,101.0,107.0,99.0,13.3,1505.3,327.3,-0.7,1.9,2470.487,13.33,0.039,219.8
2020-11-20T08:31:03,42.805,6.029,-0.013,-0.013,-0.001,102.0,107.0,100.0,13.3,1505.3,324.4,-0.7,1.8,2470.469,13.33,0.018,225.0
2020-11-20T08:34:03,42.805,6.029,0.027,-0.035,0.015,102.0,106.0,100.0,13.4,1505.3,325.0,-0.7,1.8,2470.474,13.33,0.044,142.3
2020-11-20T08:37:03,42.805,6.029,0.01,-0.001,0.028,101.0,106.0,101.0,13.4,1505.3,323.2,-0.7,1.8,2470.495,13.33,0.01,95.7
2020-11-20T08:40:03,42.805,6.029,-0.009,-0.011,-0.022,100.0,105.0,100.0,13.4,1505.3,324.9,-0.7,1.8,2470.465,13.33,0.014,219.3
2020-11-20T08:43:03,42.805,6.029,-0.012,-0.038,-0.017,101.0,105.0,98.0,13.4,1505.3,324.4,-0.7,1.8,2470.488,13.33,0.039,197.5
2020-11-20T08:46:03,42.805,6.029,-0.012,-0.043,-0.045,101.0,104.0,99.0,13.4,1505.3,325.0,-0.7,1.9,2470.461,13.33,0.044,195.6
2020-11-20T08:49:03,42.805,6.029,-0.012,-0.031,0.01,100.0,104.0,100.0,13.3,1505.3,323.6,-0.7,1.8,2470.459,13.33,0.033,201.2
2020-11-20T08:52:03,42.805,6.029,-0.032,-0.029,-0.039,100.0,105.0,100.0,13.4,1505.3,324.5,-0.7,1.8,2470.501,13.33,0.043,227.8
2020-11-20T08:55:03,42.805,6.029,-0.018,-0.024,-0.044,101.0,105.0,100.0,13.4,1505.3,326.7,-0.7,1.8,2470.457,13.33,0.03,216.9
2020-11-20T08:58:03,42.805,6.029,-0.073,-0.023,-0.045,100.0,104.0,99.0,13.4,1505.3,324.9,-0.7,1.8,2470.489,13.33,0.076,252.5
2020-11-20T09:04:03,42.805,6.029,-0.048,-0.028,-0.058,101.0,105.0,99.0,13.4,1505.3,326.0,-0.7,1.8,2470.531,13.31,0.055,239.7
2020-11-20T09:07:03,42.805,6.029,-0.044,-0.026,-0.074,101.0,105.0,99.0,13.4,1505.3,324.2,-0.7,1.8,2470.489,13.31,0.051,239.4
2020-11-20T09:10:03,42.805,6.029,-0.014,-0.02,-0.031,102.0,104.0,99.0,13.3,1505.3,326.2,-0.7,1.8,2470.506,13.32,0.024,215.0
2020-11-20T09:13:03,42.805,6.029,-0.056,-0.036,-0.073,100.0,104.0,100.0,13.3,1505.3,325.3,-0.7,1.8,2470.513,13.32,0.066,237.3
2020-11-20T09:16:03,42.805,6.029,0.003,-0.015,0.001,102.0,104.0,100.0,13.3,1505.3,323.3,-0.7,1.8,2470.495,13.32,0.015,168.7
2020-11-20T09:19:03,42.805,6.029,0.021,-0.027,0.015,100.0,104.0,100.0,13.4,1505.3,326.5,-0.7,1.8,2470.507,13.32,0.034,142.1
2020-11-20T09:22:03,42.805,6.029,0.022,-0.021,0.03,102.0,104.0,98.0,13.4,1505.3,327.6,-0.7,1.8,2470.49,13.33,0.03,133.7
2020-11-20T09:25:03,42.805,6.029,0.014,-0.016,0.026,100.0,105.0,100.0,13.4,1505.3,322.5,-0.7,1.8,2470.513,13.33,0.021,138.8
2020-11-20T09:28:03,42.805,6.029,0.01,-0.029,0.006,100.0,104.0,100.0,13.4,1505.3,323.9,-0.7,1.8,2470.484,13.33,0.03,161.0
2020-11-20T09:31:03,42.805,6.029,-0.018,-0.033,-0.001,102.0,104.0,99.0,13.3,1505.3,328.4,-0.7,1.8,2470.498,13.33,0.037,208.6
2020-11-20T09:34:03,42.805,6.029,0.028,-0.004,0.044,102.0,104.0,99.0,13.3,1505.3,322.9,-0.7,1.9,2470.508,13.33,0.028,98.1
2020-11-20T09:37:03,42.805,6.029,0.0,-0.023,-0.009,100.0,104.0,100.0,13.4,1505.3,326.3,-0.7,1.8,2470.511,13.33,0.023,180.0
2020-11-20T09:40:03,42.805,6.029,-0.014,-0.036,-0.047,100.0,103.0,100.0,13.4,1505.3,325.9,-0.7,1.8,2470.507,13.33,0.038,201.2
2020-11-20T09:43:03,42.805,6.029,-0.01,-0.026,-0.048,101.0,104.0,99.0,13.4,1505.3,325.9,-0.7,1.8,2470.485,13.33,0.027,201.0
2020-11-20T09:46:03,42.805,6.029,0.013,-0.029,-0.023,101.0,106.0,100.0,13.4,1505.3,324.1,-0.7,1.8,2470.502,13.33,0.031,155.9
2020-11-20T09:49:03,42.805,6.029,-0.043,-0.028,-0.039,100.0,105.0,100.0,13.4,1505.3,326.4,-0.7,1.8,2470.487,13.33,0.051,236.9
2020-11-20T09:52:03,42.805,6.029,-0.035,-0.01,-0.056,101.0,106.0,98.0,13.4,1505.3,325.7,-0.7,1.8,2470.504,13.33,0.036,254.1
2020-11-20T09:55:03,42.805,6.029,0.005,-0.027,-0.005,101.0,104.0,101.0,13.3,1505.3,327.6,-0.7,1.8,2470.489,13.33,0.027,169.5
2020-11-20T09:58:03,42.805,6.029,0.031,-0.002,0.031,99.0,104.0,99.0,13.4,1505.3,323.6,-0.7,1.8,2470.521,13.33,0.031,93.7